SUOMI NPP

Last updated on Fri Sep 11 2026 00:02:39 GMT+0000 (Coordinated Universal Time)

1 37849U 11061A 26253.62823574 .00000028 00000+0 34379-4 0 9994 2 37849 98.7996 193.9350 0002849 81.9758 278.1741 14.19532376770568
UTC large
Height (km)
Speed (km/s)
/
Latitude / Longitude
Inclination (degrees)
Orbital Period (minutes)
Azimuth
Elevation
Range (km)
Doppler Factor

Next 0 passes for location: London (51.5072 / 0.1276)

No passes found over London.
SUOMI NPP